Wind_Speed
65 67 67 68 68 69 69 69 69 70 70 71 72 72 72 72 72 72 72 72 72 73 72 72 72 72 72 73 73 73 73 73 73 73 74 75 75 75 76 77 77 78 79 79 80 81 81 82 83 84 85 86 86 87 88 89 90 91 91 91 92 92 93 93 93 92 92 92 93 92 93 93 92 91 91 90 88 86 83 82 82 81 79 76 75 74 73 72
63 64 66 67 68 69 69 69 69 69 69 70 71 71 72 72 73 73 74 74 74 74 74 74 74 74 74 75 75 75 75 75 75 75 76 76 76 76 76 77 77 78 78 78 79 80 80 81 83 84 84 85 86 86 87 88 89 89 90 90 91 91 91 91 91 91 91 92 93 93 93 94 94 94 94 93 91 89 87 86 85 85 82 79 77 77 77 75
56 59 62 64 65 67 68 68 68 69 69 69 69 70 70 71 72 72 73 74 74 75 75 76 76 76 76 77 77 77 77 77 77 77 78 78 77 78 78 78 78 79 79 79 79 79 80 81 82 83 84 85 86 86 87 88 88 89 89 89 89 89 90 90 89 90 90 91 92 92 93 93 94 95 95 95 93 92 91 90 89 88 85 83 79 75 75 75
47 51 54 57 60 62 64 65 66 67 67 68 68 69 69 69 70 70 71 72 73 73 74 75 75 76 77 77 78 79 79 79 79 80 80 80 80 80 80 80 80 80 81 81 81 81 81 81 82 82 83 84 85 86 87 88 89 89 89 89 89 89 88 88 88 88 89 90 91 91 92 92 94 94 95 95 94 94 94 93 92 91 88 87 83 76 73 72
37 41 45 49 52 54 56 58 60 62 63 65 66 66 67 67 68 68 69 70 70 71 71 72 73 73 74 75 76 77 78 78 79 80 81 81 82 82 82 83 82 83 83 83 83 83 83 83 84 84 84 84 85 86 87 88 88 89 90 89 89 89 89 88 88 88 88 89 90 91 92 92 93 93 94 95 94 94 95 96 95 94 91 89 88 85 82 79
26 31 36 40 43 45 48 50 52 54 56 58 60 61 63 64 64 65 66 67 68 68 69 69 70 71 71 72 73 74 75 76 77 78 79 80 81 82 83 84 84 84 85 85 85 85 85 85 86 86 86 86 86 87 87 88 88 89 89 89 89 90 90 90 89 89 89 89 89 91 91 92 93 93 93 94 94 94 95 97 97 96 94 92 90 90 89 87
14 18 24 29 33 36 39 41 43 45 47 49 51 53 55 57 59 61 62 63 64 65 66 67 67 68 69 70 71 71 72 73 75 76 77 78 79 80 81 82 83 84 85 86 87 87 88 88 88 88 88 89 89 89 89 89 90 90 90 89 89 90 90 91 90 90 89 89 89 90 91 92 93 92 92 93 94 95 95 97 97 97 95 94 93 92 92 91
8 8 11 16 22 27 30 32 35 37 39 41 42 44 46 49 51 53 55 57 59 61 62 63 64 65 66 67 68 69 70 71 72 73 74 75 76 77 78 79 80 82 83 84 86 87 88 89 90 90 91 91 92 92 92 92 92 93 92 92 91 91 91 91 91 91 90 89 89 89 90 91 92 91 91 93 96 96 95 97 97 97 96 95 94 94 94 93
11 7 5 6 10 15 19 23 26 28 30 33 35 37 39 40 42 45 47 49 52 54 56 58 60 61 63 64 65 65 67 68 69 69 70 71 72 74 75 76 77 79 80 81 83 84 85 87 88 89 90 92 93 94 94 94 94 94 95 94 94 94 93 92 91 91 90 89 89 89 90 91 91 91 91 94 97 96 96 97 97 96 96 96 96 95 95 94
18 14 9 6 3 5 9 13 16 19 22 24 26 29 31 32 34 36 38 40 42 45 47 50 52 54 56 58 59 60 62 63 64 66 67 68 69 71 72 73 75 76 77 79 80 81 82 83 84 86 87 89 90 91 93 94 94 95 95 96 96 97 96 95 93 93 92 91 89 88 89 91 91 92 93 96 97 96 95 96 97 96 96 97 97 97 96 96
22 20 17 13 9 5 2 3 7 10 13 15 17 20 22 24 26 27 29 31 33 35 36 39 41 43 45 47 49 51 53 55 57 58 60 62 63 65 67 69 70 72 73 75 76 78 79 80 81 82 84 85 86 87 88 90 92 93 94 95 97 98 98 97 96 95 95 93 90 89 89 90 92 93 95 96 96 95 95 95 96 96 97 97 98 98 97 97
25 24 22 19 17 14 10 7 4 1 3 6 8 11 13 15 17 19 21 23 24 26 28 30 32 34 36 38 39 41 43 45 47 48 50 52 54 56 58 60 62 64 66 68 70 72 73 75 77 79 81 81 82 83 83 85 87 89 91 93 94 96 96 97 97 97 96 95 93 91 91 92 92 94 95 95 96 96 95 95 96 96 97 98 99 99 99 98
30 27 25 22 20 18 16 14 11 9 6 4 2 3 5 7 9 11 13 16 18 20 22 24 26 28 30 32 33 35 37 38 40 42 44 45 47 49 51 53 55 57 59 60 62 64 66 68 70 72 74 75 77 77 78 80 83 84 86 89 91 92 93 93 94 95 96 96 95 95 94 94 94 95 96 96 96 97 95 95 96 96 98 99 100 100 100 98
35 33 31 28 25 23 20 18 16 14 12 10 8 6 4 3 4 5 7 10 12 14 16 18 20 22 24 26 28 29 31 33 35 37 39 41 42 44 46 48 50 51 53 55 56 58 59 61 62 64 66 67 69 70 71 74 77 79 81 84 87 88 88 88 90 92 93 94 95 97 97 96 96 97 98 97 95 95 95 95 95 97 99 100 100 100 99 97
39 37 36 34 32 29 27 24 22 19 17 15 14 12 10 8 6 5 5 6 7 8 10 12 14 16 18 19 21 22 24 25 27 30 32 34 36 38 39 41 43 45 46 48 50 52 53 54 55 57 59 60 62 63 64 66 69 72 74 78 81 84 84 83 84 88 90 91 92 95 97 97 98 98 98 97 95 94 95 95 95 98 100 100 100 99 98 96
42 41 39 38 36 35 33 31 29 27 25 22 20 19 17 15 12 11 10 8 9 10 10 11 12 12 13 15 16 17 18 19 21 23 25 27 29 31 33 35 37 38 40 42 44 46 47 48 49 50 51 52 54 56 57 60 63 65 68 71 74 78 80 79 80 83 85 87 88 91 94 96 97 97 96 96 96 95 96 96 96 97 99 100 99 98 97 96
45 44 43 42 40 38 36 34 33 31 29 27 26 25 23 21 18 16 14 13 15 15 14 14 13 12 13 13 14 14 15 17 18 19 21 23 25 27 29 30 32 34 36 38 39 41 42 42 43 45 46 47 48 49 50 53 56 59 62 64 67 71 74 75 76 79 81 82 84 87 89 92 95 95 94 95 96 97 98 97 97 97 97 98 98 98 98 97
46 45 44 44 42 41 39 37 36 33 32 30 30 28 25 23 22 21 21 20 17 14 14 13 10 10 12 11 10 11 13 14 15 16 18 19 21 22 24 27 29 30 32 34 35 37 37 38 38 38 40 42 44 46 47 47 49 52 55 58 61 65 68 70 71 73 74 76 79 82 85 87 90 91 91 93 95 97 99 98 98 97 96 96 97 97 98 98
47 46 45 44 43 42 41 40 39 38 36 35 34 32 31 29 27 26 25 21 16 15 16 15 14 15 14 12 11 12 13 14 14 14 14 16 17 20 22 23 25 27 28 30 32 34 35 36 35 34 34 35 37 41 44 46 46 47 49 51 54 58 62 65 66 67 68 70 74 77 80 82 84 86 87 89 92 95 98 99 99 99 97 96 96 97 98 98
51 49 48 46 45 44 43 41 41 40 40 39 38 38 36 34 31 29 26 22 21 22 22 22 22 21 18 16 15 14 15 13 12 12 13 16 17 18 19 20 22 24 26 27 30 32 33 35 35 34 32 30 30 32 36 41 44 45 45 46 48 52 55 58 61 63 63 65 68 71 74 77 80 81 82 84 87 92 96 98 99 100 99 98 97 96 97 98
54 53 51 50 49 47 45 44 43 42 42 41 40 40 39 37 35 33 31 30 29 28 27 27 25 22 20 21 20 18 16 15 15 15 16 18 19 19 20 22 22 23 23 23 24 27 29 30 31 32 32 31 29 28 28 32 38 42 44 44 44 46 50 52 55 57 58 60 63 66 69 72 74 76 78 79 83 87 91 94 97 100 100 100 99 98 98 98
55 54 53 53 52 51 50 48 47 45 44 43 41 40 40 38 38 37 36 35 34 32 32 31 27 25 25 26 25 22 19 19 21 22 21 21 22 24 25 25 25 24 22 22 24 26 27 27 27 28 29 30 29 28 27 27 30 35 39 42 42 42 44 47 50 51 53 55 59 62 66 68 69 72 74 76 79 82 86 90 94 98 100 101 101 101 100 99
57 55 54 54 53 53 52 52 51 50 48 47 45 44 42 41 41 40 39 39 38 37 36 35 33 32 32 33 32 29 28 29 30 30 28 26 27 28 27 27 27 27 26 26 25 26 26 26 25 23 22 24 25 25 25 25 25 28 32 36 39 39 39 41 44 47 48 51 54 57 61 64 66 68 71 73 76 78 81 85 90 95 98 100 101 102 102 101
61 59 57 56 55 54 54 53 53 53 52 51 50 49 47 46 46 45 45 46 45 44 43 43 41 41 40 41 40 39 39 39 38 37 36 33 33 32 30 28 29 30 31 29 25 24 24 24 23 21 20 20 20 21 21 21 22 23 26 30 33 36 36 36 38 42 44 47 49 51 55 59 62 64 67 70 72 74 77 81 86 90 95 98 99 101 102 103
63 62 61 59 58 57 56 55 54 54 54 53 53 53 52 52 52 51 51 52 51 51 50 50 49 49 48 48 48 48 47 46 43 42 42 41 41 39 33 31 32 34 34 33 30 28 26 25 24 24 22 20 19 19 18 18 18 18 20 23 27 30 32 33 34 36 39 42 44 47 49 53 57 61 64 67 69 71 73 77 82 86 91 94 97 100 102 103
64 64 63 62 61 60 59 57 56 55 55 55 55 55 55 55 55 54 54 54 53 53 53 52 52 52 53 52 52 52 51 50 48 47 47 46 47 45 41 38 38 39 38 37 37 34 30 28 28 27 26 24 22 21 20 18 17 16 16 18 20 24 27 29 31 31 33 35 39 42 45 47 51 57 61 64 67 69 70 74 78 82 86 90 94 97 100 102
66 65 65 64 64 63 62 60 59 58 56 56 55 55 55 55 55 54 55 54 53 52 52 52 51 52 52 51 51 52 51 52 52 51 50 50 50 49 47 47 46 45 44 43 42 41 38 35 33 31 30 29 27 25 23 20 17 16 16 15 14 17 21 25 27 28 28 29 32 37 40 43 46 51 56 60 64 66 67 71 75 79 82 85 89 94 98 101
66 67 67 66 65 65 64 64 62 61 59 58 56 55 54 54 53 53 54 52 51 51 51 50 49 50 50 49 49 50 50 51 52 52 52 53 53 53 53 54 53 52 51 49 48 47 46 43 40 37 36 33 29 26 24 21 18 18 17 15 12 12 14 19 22 25 26 26 27 30 34 38 42 46 50 55 60 62 65 68 71 76 79 81 85 90 95 99
65 65 66 66 66 65 65 65 64 63 62 61 59 57 55 53 51 51 51 49 49 50 49 49 49 49 48 47 48 49 49 50 50 51 53 55 55 56 57 58 58 58 57 55 52 51 49 47 45 43 40 35 31 29 27 24 23 20 16 15 13 9 8 11 15 19 22 24 25 26 30 34 37 41 45 49 54 58 62 66 69 73 77 79 82 86 92 96
60 61 62 63 63 63 64 64 64 64 64 63 62 60 58 55 52 50 48 47 48 49 48 48 48 47 47 47 47 47 47 47 48 51 53 55 57 58 59 60 60 60 60 60 58 55 53 51 49 46 41 37 33 31 28 28 27 22 19 19 17 12 8 6 7 12 16 20 23 24 26 30 33 36 39 43 48 53 58 63 67 70 74 77 80 84 88 93
56 58 58 59 59 60 61 62 63 63 63 64 63 62 61 59 56 54 50 48 48 47 47 47 47 48 48 48 47 47 47 47 49 51 53 56 58 60 61 61 61 62 61 61 61 60 59 57 53 49 45 43 40 35 33 33 31 28 26 25 22 19 15 11 7 6 9 13 18 21 24 27 30 33 36 39 43 47 52 57 62 66 69 73 77 80 85 89
54 55 55 56 56 57 58 59 60 61 61 62 62 63 63 62 61 59 56 54 51 49 47 47 47 48 48 48 47 47 47 48 49 50 51 52 53 55 56 57 58 60 60 60 61 62 62 61 59 57 55 54 52 49 46 43 39 36 33 30 28 26 23 18 13 9 5 6 11 15 20 24 27 29 33 37 40 43 46 50 55 59 63 67 71 74 79 83
52 52 53 53 54 55 56 56 57 58 58 59 60 60 61 62 61 61 60 59 56 54 53 50 49 48 47 47 47 46 46 46 47 47 47 47 48 49 51 53 54 55 56 58 59 59 59 60 60 60 59 58 56 54 51 47 43 40 36 34 33 32 29 25 21 15 10 6 4 7 13 18 22 26 29 33 37 40 43 46 49 52 55 59 63 68 73 78
52 52 52 51 52 53 54 54 55 55 56 57 58 58 59 59 60 60 60 60 59 59 58 56 54 51 48 47 46 45 45 45 45 46 46 47 48 49 49 49 51 52 53 53 52 52 54 56 57 58 57 56 55 53 49 45 44 41 37 36 34 31 28 26 24 21 17 12 8 5 6 11 16 21 25 29 33 36 40 43 46 48 50 53 57 61 66 72
51 52 51 51 51 51 52 52 53 53 54 55 55 56 57 57 58 58 58 59 59 59 60 60 59 56 54 51 48 46 45 45 46 46 46 46 47 47 47 47 47 48 50 50 50 50 50 50 52 54 55 56 55 54 52 48 46 43 41 39 35 29 26 24 23 22 20 16 13 10 6 5 10 15 20 25 29 32 36 39 43 45 48 50 53 56 60 65
50 51 51 51 50 50 50 51 51 51 52 53 54 54 55 55 56 57 57 58 58 59 59 59 59 59 58 56 53 50 47 46 46 47 47 46 45 45 45 45 45 45 46 47 48 49 49 48 48 48 50 52 53 54 54 52 50 47 45 42 36 31 29 26 24 23 21 18 16 13 9 6 5 9 14 19 24 28 32 36 39 42 45 48 51 53 56 60
49 49 49 50 49 49 49 49 50 50 50 51 52 53 53 54 55 55 56 58 58 58 58 58 58 58 58 58 57 55 52 49 48 48 48 47 46 46 45 44 44 43 44 44 45 46 48 49 48 46 44 45 47 49 51 53 52 51 49 45 40 36 33 31 29 27 24 22 20 17 13 9 6 6 9 13 18 23 28 32 36 39 42 45 48 50 53 56
49 48 48 48 49 49 49 48 49 49 49 50 50 51 51 52 53 53 54 56 57 58 58 57 57 57 57 57 57 57 56 54 52 51 50 49 48 48 47 46 45 44 43 43 42 42 43 45 47 47 44 41 41 41 43 46 48 48 49 49 46 43 39 37 35 31 27 25 23 21 19 15 10 7 6 9 12 17 22 27 32 35 39 41 44 47 50 52
48 48 48 47 47 48 48 48 48 48 48 49 49 49 50 50 51 52 53 53 55 56 57 57 57 57 57 56 56 56 57 57 56 54 53 52 50 50 50 49 48 47 45 45 44 42 41 40 41 44 45 45 43 40 39 40 42 43 45 47 48 47 45 43 40 36 32 27 23 21 18 17 15 12 10 8 9 11 16 21 26 31 35 38 41 44 46 49
48 48 48 47 46 46 46 47 47 47 47 47 48 48 49 49 49 50 51 52 53 54 55 56 56 57 57 56 56 55 55 56 56 56 55 54 52 52 52 51 50 49 48 47 47 46 43 41 40 41 43 46 46 44 41 39 39 40 42 43 44 44 45 45 43 41 38 33 28 23 18 15 14 14 13 11 10 9 11 15 20 25 30 34 37 40 43 46
48 47 48 48 46 45 45 46 46 46 45 46 46 47 47 47 48 49 50 51 52 53 53 54 54 55 55 55 55 55 55 55 55 56 56 55 54 53 52 52 51 51 50 49 48 48 46 45 44 43 42 42 44 44 42 39 37 36 36 37 38 39 40 41 42 42 41 39 36 31 25 19 15 12 11 11 11 10 10 12 15 19 24 28 32 35 39 42
50 48 48 48 47 46 45 45 45 45 45 45 45 45 45 46 47 47 49 49 50 52 52 52 53 53 53 54 54 54 54 54 54 55 55 56 55 53 52 52 51 51 50 50 49 48 47 46 46 46 43 41 41 42 42 40 37 34 31 30 32 34 34 35 37 38 39 40 40 38 35 30 25 19 15 13 12 11 10 10 12 15 18 22 26 30 33 37
52 50 49 49 48 47 46 46 46 46 46 45 44 44 44 45 45 46 47 49 49 49 50 51 51 51 52 52 53 53 53 53 53 53 54 55 56 55 53 52 50 49 49 49 49 47 46 46 46 47 47 45 43 43 42 41 39 36 32 28 27 29 31 31 32 33 34 35 37 38 38 37 34 31 27 22 19 16 13 11 10 12 15 17 21 24 28 32
53 52 51 51 50 49 47 46 46 46 47 47 46 45 43 43 44 45 46 47 48 48 48 48 49 49 50 51 51 52 52 52 52 52 53 54 55 56 55 53 51 49 48 48 48 47 46 46 45 44 45 45 43 42 42 41 39 37 34 29 26 25 28 30 30 30 30 31 32 33 35 36 36 36 34 32 29 26 22 18 15 13 14 15 17 20 23 26
54 53 53 52 51 50 48 47 46 46 48 48 47 47 45 44 44 45 45 46 47 47 47 47 47 48 49 50 51 51 51 51 51 50 51 52 53 55 55 55 53 51 50 48 48 48 48 48 47 45 43 43 42 40 39 40 39 38 35 31 27 24 24 27 29 29 28 28 29 30 30 32 33 34 34 34 34 33 30 27 24 20 18 17 18 19 20 22
55 54 54 54 53 52 50 48 47 46 48 50 49 48 47 45 44 44 45 46 48 48 48 48 47 47 48 49 50 50 50 50 50 50 49 50 51 52 54 56 56 54 53 50 47 47 49 49 50 49 47 46 46 43 40 38 38 37 36 33 29 24 21 22 26 27 27 27 28 29 29 28 28 29 30 30 31 32 33 32 30 28 25 23 22 22 22 23
57 55 55 54 54 53 52 51 49 48 49 51 51 50 48 47 46 45 45 46 48 48 48 48 48 48 48 48 49 49 50 49 50 50 49 49 49 50 52 55 56 56 56 54 50 46 47 49 49 51 50 49 49 48 45 40 36 35 36 35 33 29 23 20 21 25 27 26 27 29 30 30 28 25 25 26 26 26 28 29 29 30 29 28 27 27 26 26
57 57 55 55 55 54 53 52 51 50 50 52 53 52 51 49 48 47 46 46 48 49 49 49 50 49 49 49 49 49 50 50 50 50 50 50 50 50 51 53 55 56 57 58 56 50 47 47 47 49 51 50 49 50 50 47 41 35 35 36 36 35 31 25 21 22 25 26 25 26 28 30 31 29 26 24 23 23 24 26 26 27 28 28 28 29 29 28
57 57 57 56 55 55 54 53 52 51 51 53 54 54 53 52 51 50 48 47 48 49 49 50 51 51 51 50 50 50 50 50 51 51 51 50 50 51 52 52 53 55 57 58 60 57 52 49 48 47 50 51 50 50 52 53 48 40 36 36 37 38 39 36 29 24 23 26 26 25 26 27 30 32 32 29 26 23 22 24 26 26 27 27 28 28 29 29
56 57 57 56 56 56 55 54 53 52 52 54 54 54 55 54 53 52 50 49 49 50 50 50 51 53 53 53 51 50 50 51 51 52 52 52 51 51 52 53 54 55 56 58 60 61 58 55 51 48 48 50 51 50 50 54 55 47 37 36 38 39 41 42 40 33 27 27 28 26 24 26 27 30 33 34 32 29 24 22 24 27 27 28 28 29 29 30
57 57 57 57 57 57 57 54 53 52 53 54 54 55 56 56 55 54 52 51 51 51 50 50 52 54 55 56 55 52 51 51 51 52 53 53 53 52 52 53 54 55 56 58 60 62 61 59 56 52 48 49 51 51 49 53 57 53 40 33 37 39 39 42 45 43 36 32 33 31 26 26 28 28 31 34 36 36 31 25 24 27 29 29 30 30 30 30
56 57 58 58 58 59 59 56 53 52 53 54 54 54 56 57 57 56 53 53 54 53 51 50 52 54 55 57 58 56 53 51 51 51 53 53 54 54 53 53 55 56 57 59 62 63 62 61 60 56 52 51 52 50 48 50 58 60 47 35 35 37 37 40 45 48 45 38 37 39 33 28 28 30 31 33 35 39 39 33 27 29 32 31 32 32 31 32
Wind_Direction
251 251 250 249 249 248 248 247 247 247 247 248 248 248 249 249 250 250 251 251 252 252 252 253 253 254 254 254 255 255 256 256 256 257 257 257 257 258 258 258 257 257 257 257 256 256 256 256 255 255 255 255 255 255 254 254 253 253 252 251 250 250 249 249 249 248 248 248 248 248 248 248 248 248 248 248 246 245 243 243 244 244 243 243 244 244 244 243
253 252 251 251 250 250 249 249 249 249 248 249 249 249 249 250 250 251 251 252 253 253 253 254 254 254 255 255 255 256 256 256 257 257 257 257 258 258 258 258 258 258 257 257 257 256 256 256 256 255 255 255 255 254 254 254 253 253 252 252 251 250 250 249 249 248 248 248 248 247 247 247 247 247 247 247 247 246 245 243 243 243 243 242 243 244 244 245
254 253 252 252 252 251 251 251 251 250 250 250 250 250 250 250 251 251 252 252 253 253 254 254 255 255 256 256 256 257 257 257 257 257 257 258 258 258 258 258 258 258 258 258 257 257 256 256 256 255 255 255 255 254 254 254 254 253 253 252 251 251 250 249 249 248 248 247 247 247 247 247 247 246 246 246 246 246 246 244 243 243 243 242 242 243 245 246
256 254 253 252 252 252 252 252 252 252 252 252 252 252 252 252 252 252 253 253 254 254 255 255 255 256 256 257 257 257 258 258 258 258 258 258 258 258 258 258 258 258 258 258 258 257 257 256 256 255 255 255 255 255 254 254 253 253 253 252 251 251 250 249 248 247 247 247 247 246 246 246 246 246 246 246 246 246 246 245 244 243 242 242 241 240 240 241
258 256 254 253 252 252 252 252 252 252 252 252 253 253 253 254 254 254 254 255 255 255 256 256 256 257 257 257 258 258 258 258 259 259 259 259 259 259 259 258 258 258 258 258 257 257 257 257 256 256 255 255 255 255 254 254 253 253 252 252 251 251 249 248 247 246 246 245 245 245 245 245 245 246 246 246 245 245 245 245 244 243 242 242 241 239 238 238
262 257 255 253 252 251 251 251 251 252 252 252 253 253 253 254 254 255 255 256 256 257 257 257 258 258 258 258 259 259 259 259 259 260 260 260 260 260 260 259 259 259 258 258 258 257 257 257 256 256 255 255 254 254 254 254 254 253 252 251 251 250 249 248 247 246 245 245 245 245 244 244 244 244 245 245 245 244 244 245 244 244 242 241 240 240 239 238
278 265 257 253 252 251 251 251 250 251 251 251 252 253 253 254 255 255 256 256 257 257 258 258 258 259 259 259 260 260 260 261 261 261 261 261 261 261 261 261 261 261 260 260 259 258 258 257 257 256 256 255 255 254 254 253 253 253 252 251 250 249 249 248 247 245 244 244 244 244 244 244 244 243 243 244 244 243 243 244 244 244 243 241 240 240 239 238
325 295 270 256 251 251 251 251 251 250 250 250 251 251 252 253 254 255 256 256 257 257 258 259 259 260 260 260 260 261 261 261 262 262 262 263 263 263 263 263 263 263 262 262 261 260 260 259 258 257 257 256 256 255 254 253 253 253 253 252 251 250 249 248 247 246 244 243 243 243 243 243 243 243 243 243 243 243 242 243 243 243 243 243 241 240 240 239
17 358 326 281 256 250 249 251 251 252 251 251 251 251 252 252 253 254 254 255 256 257 257 258 259 260 260 261 261 262 262 263 264 264 264 264 264 264 264 264 263 263 263 262 262 261 261 260 259 258 258 257 256 256 255 254 253 253 253 252 252 251 249 248 247 247 245 243 242 242 242 242 242 242 242 242 242 242 242 242 243 242 243 243 242 240 239 239
38 34 26 8 321 269 252 249 250 251 252 252 253 253 254 255 255 256 256 257 257 258 259 260 261 262 263 263 264 264 264 265 265 266 266 266 266 266 265 265 265 264 264 263 263 262 262 261 260 260 259 258 257 256 256 255 254 253 253 252 252 252 251 249 248 247 246 244 242 242 241 241 241 241 240 241 241 241 241 242 243 242 242 242 242 241 240 239
46 47 46 45 41 31 348 274 257 254 254 255 255 257 258 259 260 261 262 263 263 264 264 265 265 265 266 266 266 267 267 267 267 268 268 268 268 268 268 268 267 267 266 266 265 264 264 263 262 261 260 259 258 257 257 256 255 254 253 252 252 251 251 250 249 248 247 245 243 241 241 241 240 240 239 240 241 241 240 241 242 242 242 242 242 242 241 239
48 48 50 51 52 54 54 52 43 346 274 265 264 263 263 264 265 265 266 266 267 267 267 267 267 266 267 267 268 268 269 270 270 269 269 269 269 269 269 269 269 268 268 267 267 266 265 264 263 262 261 260 259 258 257 256 256 255 255 254 252 251 251 250 249 248 248 247 245 242 240 240 240 239 239 238 239 239 239 240 240 241 241 241 241 241 241 240
50 50 51 51 53 54 56 57 58 58 57 48 6 293 278 271 268 267 267 266 265 266 266 266 267 267 268 268 269 270 270 271 271 271 270 270 270 270 270 270 270 270 270 270 269 268 267 266 265 264 263 262 261 259 258 257 256 255 255 254 254 252 251 250 250 249 248 247 246 244 242 240 239 239 239 238 238 238 238 238 239 240 240 240 240 240 240 240
53 52 52 52 51 52 51 52 52 53 53 52 49 41 25 348 310 285 275 272 272 272 272 273 274 274 274 274 274 274 274 275 275 275 275 275 275 275 275 274 274 274 274 274 273 272 271 270 269 268 267 266 264 262 260 258 257 256 254 254 254 253 251 250 250 249 248 247 246 245 243 241 239 239 239 239 238 238 237 236 237 239 239 239 240 240 240 240
54 54 53 53 52 52 52 52 52 51 50 48 47 44 38 31 18 359 341 324 312 307 303 300 296 293 290 289 287 285 284 284 284 283 282 282 281 281 281 280 280 280 280 280 279 278 277 276 274 273 271 269 268 265 263 260 258 257 255 254 253 253 252 250 249 249 248 246 245 244 244 242 241 239 239 240 239 238 238 236 235 237 238 239 239 240 240 240
54 54 53 53 52 52 52 51 51 51 50 49 49 47 44 41 37 33 25 18 12 7 356 345 335 327 320 316 314 311 307 304 300 296 293 291 291 290 289 288 288 287 286 286 285 284 284 283 281 279 277 273 270 268 265 262 260 258 256 254 253 253 252 250 248 247 247 246 244 243 243 242 242 240 239 239 239 239 238 237 235 235 237 238 239 239 240 239
54 54 54 54 53 52 51 50 50 49 49 48 48 48 47 45 44 43 41 39 31 23 16 11 4 357 352 342 334 331 324 318 314 310 307 305 304 301 298 297 296 294 293 292 290 289 287 285 284 282 281 279 276 272 267 264 261 259 257 255 253 253 252 250 247 246 246 245 244 243 242 242 241 240 238 237 237 238 238 238 237 235 235 236 238 238 239 238
55 56 56 56 56 56 55 54 54 53 52 52 51 51 50 48 47 45 44 43 37 27 25 25 21 15 11 1 350 346 340 338 334 327 322 317 312 309 308 306 305 303 301 299 296 295 293 290 286 283 281 279 278 276 273 268 264 261 258 256 254 253 252 251 249 246 245 245 244 243 242 242 241 240 238 236 235 236 237 237 237 237 236 235 236 237 238 238
55 55 55 56 56 56 57 57 57 56 56 55 54 53 52 50 50 48 48 47 41 36 38 39 39 35 29 25 20 15 11 5 356 346 337 331 330 327 322 319 316 312 310 308 308 308 307 304 300 294 288 282 278 275 274 272 268 264 260 257 255 253 252 252 251 248 246 244 243 243 242 242 241 240 238 236 235 235 235 235 236 237 237 235 235 236 237 237
55 55 55 55 55 55 55 55 55 55 55 55 54 54 53 52 52 53 54 52 48 47 47 46 46 44 40 39 37 34 30 23 11 3 359 357 354 343 334 331 326 324 324 324 322 319 316 313 310 307 302 296 287 279 273 271 270 268 263 258 254 253 252 251 250 249 246 244 243 242 242 241 241 240 238 236 235 234 234 234 234 235 236 236 235 234 235 236
56 56 56 55 55 54 53 53 53 53 54 54 54 55 54 54 54 54 54 52 51 51 50 49 48 46 43 41 39 36 33 29 23 19 17 14 5 356 353 349 342 339 335 327 321 319 319 319 319 317 313 308 301 293 281 271 268 268 267 263 257 253 251 250 249 248 246 244 243 241 241 240 240 240 238 236 234 233 232 232 233 233 233 234 235 234 234 234
55 56 56 56 56 55 54 53 52 53 53 53 52 53 53 53 53 53 53 53 51 50 49 47 46 45 44 42 39 36 33 29 27 25 23 17 13 12 12 8 3 355 342 332 330 330 330 329 327 322 317 313 308 303 295 282 269 264 264 265 262 257 252 250 249 248 246 243 241 240 239 239 238 238 238 236 234 233 232 231 231 232 232 232 233 234 234 233
52 52 53 54 54 54 53 53 52 51 51 50 50 50 51 51 50 49 50 49 47 45 44 41 40 40 39 37 35 35 34 32 30 28 25 21 19 19 19 19 16 10 2 356 349 344 340 335 332 327 321 316 312 306 300 292 279 267 261 261 263 261 256 251 249 248 245 242 240 238 238 238 237 236 236 236 234 232 231 231 230 230 231 231 231 232 233 233
49 49 50 50 51 51 51 51 50 49 48 48 47 46 46 46 45 44 43 42 40 38 37 34 34 33 32 31 29 29 31 30 30 29 26 25 23 21 20 21 21 19 17 12 2 354 349 343 340 338 333 329 325 316 307 299 289 276 265 260 260 262 261 256 250 247 245 243 240 237 236 237 237 236 236 235 234 231 230 230 230 229 230 230 230 231 232 233
48 47 47 47 48 48 48 48 48 47 46 46 45 43 42 41 40 39 38 37 34 33 32 30 29 28 28 27 24 24 25 23 24 26 25 25 24 22 22 24 23 22 22 19 14 8 2 357 355 352 350 349 345 337 329 318 305 292 277 266 260 259 260 259 254 248 245 243 242 239 235 234 235 235 235 235 234 232 229 229 229 229 228 228 229 230 231 232
47 46 46 45 45 46 46 45 45 45 44 44 43 41 39 38 37 35 34 33 31 30 29 27 26 26 26 24 22 22 21 19 20 22 22 22 21 21 23 25 24 23 22 22 22 18 13 9 7 5 2 2 0 358 354 342 331 320 303 284 269 260 258 258 257 253 247 242 241 240 237 234 233 234 234 234 233 232 230 229 229 229 228 227 227 228 229 230
46 45 44 44 43 44 43 43 43 43 42 42 41 40 38 36 35 33 33 30 28 28 28 26 26 25 25 23 21 21 19 17 18 18 18 19 18 18 22 25 23 23 22 22 23 23 21 18 14 12 12 11 9 7 5 360 354 346 330 310 288 270 259 256 256 254 251 245 241 240 238 235 232 232 233 234 233 232 231 229 229 229 229 227 227 227 228 229
45 44 43 42 42 42 42 42 41 41 40 40 40 39 37 36 34 32 31 28 27 27 27 26 26 26 25 23 21 20 18 17 17 14 14 17 16 15 19 20 19 20 22 22 22 23 24 23 21 19 18 16 13 11 9 9 11 6 353 341 322 293 268 258 255 254 252 248 242 238 238 236 234 232 232 233 233 232 231 230 229 229 229 227 226 227 228 228
44 43 42 41 40 40 40 41 40 39 39 39 38 38 37 35 33 32 31 27 26 27 25 25 26 26 25 23 22 21 18 17 15 12 13 14 13 14 16 16 15 17 18 19 20 22 23 25 26 25 24 20 17 15 13 14 17 16 13 8 356 334 298 269 257 254 252 250 246 240 236 236 235 233 232 232 233 233 232 231 229 229 229 228 227 226 227 228
43 41 40 39 38 38 39 39 39 38 38 37 37 37 36 35 33 32 30 27 27 26 25 25 25 25 26 24 24 22 19 17 14 13 13 11 10 12 14 14 13 14 15 15 17 19 20 22 24 26 27 26 24 22 22 23 21 18 22 24 19 12 0 326 281 261 253 249 247 243 239 236 234 233 233 233 234 234 233 232 231 230 229 229 228 226 227 228
42 41 40 39 38 37 37 37 37 36 36 36 36 36 36 35 34 33 31 29 28 26 24 24 23 24 25 24 23 22 20 19 16 14 13 11 9 10 11 11 11 12 14 14 14 15 17 18 19 21 24 25 25 23 23 25 23 21 23 24 23 25 24 17 358 303 265 251 245 242 239 238 235 233 231 231 232 235 236 236 235 233 231 231 230 229 228 228
40 41 40 39 38 37 36 35 35 35 34 34 35 35 35 35 34 33 32 31 29 27 26 24 23 23 23 22 22 22 21 20 18 16 15 12 10 9 10 10 10 11 12 13 14 14 15 15 15 17 19 21 22 21 20 19 18 20 22 21 22 23 22 21 17 4 327 273 251 242 239 237 237 235 233 231 230 231 234 237 239 238 236 234 233 233 232 231
37 39 40 40 39 37 36 35 34 34 33 33 33 33 34 34 33 33 32 32 31 29 28 26 25 23 22 21 21 21 21 21 20 19 17 14 12 11 10 8 9 10 11 13 15 15 14 14 14 16 17 18 21 22 22 21 20 20 21 22 24 24 21 20 19 15 10 350 295 255 242 238 237 236 235 234 233 231 230 232 236 239 240 239 237 236 235 234
34 36 37 39 39 38 37 35 34 33 33 32 31 30 31 31 32 32 32 32 31 30 28 27 27 26 24 22 22 21 21 21 20 20 19 17 14 12 11 9 8 9 11 13 15 16 16 14 13 14 15 16 18 20 22 25 26 24 24 23 24 24 24 24 24 22 21 15 4 330 265 242 238 236 235 235 235 235 234 232 233 234 237 238 238 237 237 236
31 33 34 35 37 37 37 36 35 34 33 32 31 29 29 29 29 29 30 30 31 30 29 28 27 27 26 25 24 23 22 21 20 19 19 18 17 14 12 10 9 9 10 11 12 14 16 16 15 14 13 13 15 15 17 21 24 26 27 25 22 20 21 25 27 27 27 26 21 10 339 275 248 239 237 237 237 236 236 236 235 235 235 236 236 236 236 237
29 30 31 32 33 34 35 35 35 34 33 32 30 29 27 27 27 27 27 28 28 29 29 28 28 27 27 26 25 24 24 22 21 20 19 18 18 16 14 12 10 8 9 10 11 11 12 14 17 18 16 14 14 13 13 15 17 21 24 24 23 22 19 19 22 23 25 27 26 22 15 353 298 260 245 241 239 238 238 237 237 237 237 237 237 237 236 236
26 28 29 29 29 31 32 33 33 33 33 32 31 28 27 26 25 25 24 24 25 25 26 26 26 27 27 27 26 25 24 23 21 21 20 18 18 17 16 14 12 10 8 8 9 11 11 11 13 17 20 19 17 14 12 12 13 15 16 18 21 23 22 20 19 18 19 20 20 19 17 15 357 306 272 255 246 242 241 240 240 239 239 238 239 239 239 238
22 24 27 27 27 28 29 29 30 30 30 31 30 29 27 25 24 24 23 22 22 22 22 23 23 24 24 25 26 26 25 23 21 20 20 19 18 16 15 15 13 12 10 8 8 9 11 11 10 10 13 17 19 18 15 13 13 12 11 11 14 17 19 20 19 17 17 18 18 16 12 7 2 344 310 280 261 251 246 243 242 242 242 241 240 240 240 240
19 20 22 24 25 25 25 26 27 27 27 27 28 28 27 26 24 23 22 22 21 20 20 20 20 20 20 20 21 23 24 24 23 21 19 18 17 16 14 13 13 12 10 8 8 7 8 10 9 7 7 8 11 16 16 14 12 11 10 10 10 10 11 13 15 15 16 16 17 17 14 8 2 352 338 318 290 269 256 250 247 246 245 245 244 243 242 242
17 18 18 20 21 23 23 22 23 23 24 23 24 25 26 25 24 23 22 21 21 19 19 18 17 17 17 17 17 18 20 22 23 23 21 18 16 15 14 12 11 11 9 7 6 5 5 5 5 7 6 5 5 8 11 13 12 11 10 10 9 8 7 7 8 9 10 11 12 12 11 10 4 354 343 335 323 300 276 260 253 250 249 248 247 246 245 244
15 15 15 16 17 18 19 19 18 19 20 20 21 22 23 24 23 23 22 21 20 19 18 17 16 15 15 15 15 15 16 17 19 21 21 20 18 15 14 13 11 9 9 7 4 3 3 3 3 4 6 5 3 4 6 10 13 13 11 9 8 7 6 5 4 4 4 5 5 6 6 5 360 351 340 332 326 316 301 281 266 258 253 251 250 249 248 247
11 13 13 14 15 15 15 14 14 14 14 15 17 19 21 22 22 21 20 20 19 18 17 16 15 14 14 13 13 13 13 14 15 16 18 20 20 18 15 14 12 9 8 7 5 2 1 1 1 1 2 3 3 2 2 4 9 12 12 10 7 6 5 4 3 2 1 0 360 359 360 360 357 351 342 331 321 315 311 301 287 276 267 261 256 253 250 249
8 9 10 11 12 12 12 11 11 10 9 9 11 14 17 19 20 19 18 17 18 18 17 16 14 13 12 12 13 12 11 11 11 12 14 16 19 19 19 16 14 11 9 7 5 2 359 358 357 357 358 360 1 1 360 360 2 7 9 10 8 6 4 3 2 1 0 359 358 356 355 355 355 352 348 342 333 324 316 305 293 284 277 272 267 262 257 253
5 6 6 7 8 9 9 10 10 9 7 6 6 8 11 15 17 17 15 14 15 16 17 15 14 13 11 11 12 12 11 10 10 9 10 11 14 16 18 18 17 15 12 8 5 3 0 358 357 355 354 356 359 359 357 357 358 1 4 7 8 7 5 4 2 0 359 357 357 356 353 352 351 350 349 346 342 336 328 317 303 290 278 270 267 266 264 261
1 3 4 5 5 6 7 7 8 8 7 5 3 2 4 9 13 14 13 11 11 12 14 14 13 12 11 10 10 11 11 10 9 9 8 7 8 11 13 16 17 16 15 11 6 2 360 359 358 356 353 352 355 357 356 355 355 356 358 1 4 5 6 6 5 3 360 356 354 354 353 351 349 347 346 345 343 340 336 329 321 309 296 283 273 270 269 266
357 359 1 2 3 4 5 5 5 6 6 6 4 1 0 2 7 11 10 9 8 9 10 10 11 10 10 9 9 10 10 10 9 9 8 7 6 6 8 10 13 15 15 14 10 4 359 357 356 356 354 349 349 353 357 356 353 352 353 355 357 359 2 5 7 6 3 1 357 353 351 350 348 346 344 342 341 339 336 334 330 325 317 307 297 289 283 278
354 355 356 358 0 1 2 3 3 3 4 4 3 1 359 359 2 5 7 6 6 6 6 6 6 6 7 8 8 8 9 9 8 8 9 8 6 4 4 5 7 10 12 14 14 8 1 357 354 353 353 350 346 348 353 356 353 349 348 349 350 351 354 357 1 4 4 4 2 358 354 350 347 344 342 340 337 334 332 331 330 328 325 320 313 304 296 289
352 352 352 354 356 357 359 0 1 1 1 1 1 0 359 359 359 1 2 3 3 3 3 2 2 2 3 5 6 7 8 8 8 7 7 7 6 5 3 2 3 4 7 10 12 12 6 1 356 352 350 350 346 343 346 352 353 349 345 344 344 345 347 347 350 355 359 360 0 0 358 355 350 345 341 337 335 331 328 325 324 323 321 319 316 311 305 297
347 350 350 351 352 353 355 356 357 358 358 358 358 358 358 358 358 359 359 359 360 0 0 359 358 358 358 360 2 4 5 7 7 6 6 5 4 4 3 2 0 0 1 3 6 9 8 5 1 355 349 349 347 342 340 344 349 350 344 338 337 339 341 341 341 342 348 351 352 354 356 356 353 349 343 338 334 330 326 322 319 316 314 313 311 309 307 303
342 346 348 349 349 350 351 352 353 354 354 354 355 355 356 356 358 359 357 356 357 358 358 357 355 355 355 355 358 360 1 3 5 6 5 4 3 2 1 360 359 357 358 358 359 2 4 5 5 0 351 347 346 342 337 337 343 350 348 338 335 335 335 336 336 334 338 342 341 343 348 350 351 351 348 342 336 331 326 322 317 313 310 308 306 305 304 303
339 341 343 345 346 348 349 349 350 350 350 351 351 351 352 354 356 358 356 355 355 356 356 355 353 353 353 353 354 355 356 358 2 4 4 3 2 1 359 359 358 356 355 356 356 357 359 1 3 2 356 348 347 345 338 333 337 346 352 345 335 332 330 331 332 330 331 336 334 332 335 342 345 346 347 345 340 334 328 324 320 315 311 308 305 303 303 302
336 337 339 341 342 344 346 347 348 348 347 348 348 347 348 350 353 356 355 353 352 353 354 353 352 351 351 351 352 352 352 353 356 0 2 1 0 359 358 357 356 355 353 354 355 354 354 356 358 0 357 351 349 348 342 334 331 337 349 352 339 331 327 328 329 326 327 334 333 328 326 330 336 340 341 342 341 337 331 326 325 321 315 312 308 305 303 301
Height
10584 10586 10587 10589 10591 10592 10594 10596 10599 10601 10603 10605 10607 10609 10611 10613 10614 10615 10616 10618 10619 10620 10622 10623 10625 10626 10627 10628 10630 10631 10632 10634 10635 10636 10637 10637 10639 10640 10641 10643 10644 10645 10647 10648 10650 10651 10653 10654 10655 10656 10658 10659 10662 10664 10665 10667 10670 10673 10678 10682 10684 10689 10695 10701 10708 10712 10715 10716 10718 10723 10724 10723 10728 10732 10732 10737 10743 10750 10758 10760 10759 10763 10768 10773 10775 10778 10781 10783
10577 10578 10580 10582 10583 10585 10587 10589 10592 10595 10597 10599 10601 10602 10604 10606 10608 10609 10610 10611 10613 10614 10615 10617 10618 10620 10621 10622 10623 10624 10626 10627 10629 10629 10629 10630 10632 10633 10634 10634 10635 10637 10638 10640 10641 10642 10644 10645 10645 10647 10648 10650 10652 10654 10655 10656 10659 10662 10666 10669 10673 10679 10685 10692 10698 10701 10704 10705 10706 10711 10713 10713 10715 10720 10722 10726 10732 10739 10746 10750 10751 10753 10759 10765 10769 10771 10774 10777
10570 10571 10573 10574 10576 10578 10580 10583 10585 10588 10590 10592 10594 10596 10598 10600 10601 10603 10604 10605 10606 10608 10609 10610 10612 10613 10614 10615 10616 10617 10618 10620 10622 10622 10622 10624 10625 10625 10626 10627 10627 10628 10630 10631 10632 10633 10634 10635 10636 10637 10639 10640 10642 10643 10644 10646 10649 10651 10654 10658 10663 10669 10675 10682 10687 10690 10693 10694 10695 10699 10703 10703 10704 10708 10712 10716 10723 10728 10732 10738 10741 10744 10750 10757 10763 10768 10771 10773
10563 10564 10566 10567 10569 10571 10574 10576 10579 10581 10584 10586 10588 10589 10591 10593 10595 10596 10597 10599 10600 10601 10602 10604 10605 10606 10608 10608 10609 10610 10611 10613 10614 10614 10615 10616 10617 10617 10618 10619 10619 10620 10621 10622 10623 10624 10625 10626 10627 10628 10629 10631 10632 10632 10633 10635 10638 10640 10643 10648 10653 10657 10663 10671 10675 10678 10681 10682 10684 10687 10692 10693 10693 10697 10702 10706 10713 10717 10719 10725 10730 10734 10741 10746 10755 10761 10761 10761
10558 10558 10560 10561 10563 10565 10567 10570 10572 10575 10577 10579 10581 10583 10585 10586 10588 10590 10591 10592 10593 10595 10596 10597 10598 10599 10600 10601 10602 10602 10604 10605 10605 10606 10607 10608 10608 10608 10609 10610 10610 10611 10612 10613 10613 10614 10615 10616 10617 10618 10619 10621 10622 10622 10623 10624 10627 10629 10631 10636 10641 10644 10650 10658 10661 10665 10669 10671 10673 10676 10680 10683 10685 10688 10691 10696 10703 10706 10707 10711 10717 10723 10730 10736 10742 10747 10747 10748
10554 10554 10555 10556 10558 10559 10562 10564 10566 10568 10571 10573 10575 10576 10578 10580 10581 10583 10584 10586 10587 10588 10589 10590 10591 10592 10593 10594 10594 10595 10596 10596 10597 10598 10598 10598 10599 10599 10599 10600 10601 10602 10602 10603 10603 10604 10605 10606 10606 10607 10608 10610 10611 10611 10612 10613 10614 10616 10620 10624 10628 10632 10636 10643 10648 10652 10656 10660 10662 10665 10669 10673 10676 10679 10682 10686 10691 10694 10696 10698 10704 10710 10717 10724 10730 10733 10736 10740
10551 10551 10551 10552 10554 10555 10557 10559 10561 10563 10565 10567 10569 10571 10572 10574 10575 10577 10578 10579 10581 10582 10583 10584 10584 10585 10586 10586 10587 10587 10588 10588 10588 10589 10589 10590 10590 10590 10590 10590 10591 10592 10592 10593 10593 10593 10594 10595 10596 10596 10597 10598 10599 10600 10602 10603 10603 10604 10609 10612 10615 10620 10623 10628 10634 10639 10644 10649 10652 10655 10659 10662 10665 10670 10675 10677 10677 10681 10685 10687 10692 10698 10704 10712 10718 10722 10725 10731
10550 10549 10549 10550 10551 10552 10554 10556 10557 10559 10561 10563 10564 10565 10567 10568 10570 10571 10572 10573 10574 10575 10576 10577 10578 10578 10578 10579 10579 10580 10580 10580 10580 10581 10581 10582 10582 10582 10582 10582 10582 10582 10582 10582 10582 10582 10582 10583 10584 10585 10586 10586 10587 10588 10589 10592 10593 10593 10596 10599 10603 10607 10610 10614 10619 10625 10632 10638 10641 10645 10649 10651 10655 10661 10667 10666 10662 10668 10674 10676 10681 10688 10693 10699 10706 10711 10715 10721
10550 10549 10549 10549 10550 10551 10552 10554 10555 10556 10558 10559 10560 10562 10563 10564 10565 10566 10567 10568 10568 10569 10570 10570 10571 10571 10571 10571 10572 10573 10573 10573 10574 10574 10574 10574 10574 10574 10573 10572 10572 10571 10571 10570 10570 10570 10570 10570 10571 10572 10572 10573 10575 10575 10575 10579 10582 10584 10585 10587 10590 10593 10597 10603 10607 10612 10619 10625 10630 10635 10639 10642 10645 10651 10655 10651 10649 10656 10664 10667 10671 10678 10684 10687 10693 10700 10704 10709
10552 10551 10550 10550 10550 10551 10552 10553 10554 10555 10556 10557 10558 10559 10560 10561 10561 10562 10563 10563 10564 10564 10565 10565 10566 10566 10566 10566 10567 10567 10567 10567 10567 10567 10566 10566 10565 10564 10563 10562 10561 10561 10560 10559 10559 10559 10559 10559 10559 10559 10559 10560 10561 10562 10563 10565 10568 10572 10573 10575 10577 10578 10583 10590 10596 10600 10603 10610 10619 10626 10629 10631 10635 10638 10638 10637 10640 10648 10656 10659 10662 10669 10674 10677 10680 10686 10692 10697
10554 10553 10552 10551 10551 10551 10552 10552 10553 10554 10555 10555 10556 10557 10558 10558 10559 10560 10560 10561 10561 10562 10562 10562 10562 10562 10562 10561 10561 10561 10560 10560 10560 10559 10559 10558 10557 10556 10554 10553 10552 10552 10551 10550 10549 10549 10548 10548 10547 10547 10546 10547 10549 10550 10552 10554 10555 10558 10559 10562 10564 10564 10569 10575 10582 10586 10588 10597 10608 10615 10618 10618 10621 10622 10624 10628 10632 10638 10646 10649 10653 10659 10663 10667 10670 10674 10680 10685
10555 10554 10553 10552 10552 10552 10552 10552 10552 10553 10553 10554 10554 10555 10556 10556 10557 10557 10557 10558 10558 10558 10558 10557 10557 10557 10556 10556 10556 10556 10555 10555 10554 10553 10552 10551 10550 10549 10547 10545 10544 10542 10541 10540 10539 10538 10537 10536 10535 10534 10533 10534 10536 10538 10542 10543 10543 10545 10546 10548 10549 10551 10556 10561 10567 10572 10577 10584 10593 10601 10604 10605 10607 10607 10612 10617 10619 10625 10635 10639 10643 10649 10652 10655 10658 10661 10665 10673
10558 10556 10555 10554 10553 10553 10552 10552 10552 10552 10552 10552 10553 10553 10553 10553 10554 10554 10554 10554 10554 10554 10553 10553 10553 10552 10552 10552 10552 10551 10550 10549 10548 10547 10546 10545 10544 10542 10540 10538 10536 10535 10533 10532 10530 10528 10527 10526 10524 10523 10523 10524 10524 10527 10531 10531 10531 10533 10534 10534 10534 10538 10543 10549 10554 10558 10565 10571 10577 10583 10588 10593 10595 10594 10597 10603 10607 10615 10625 10631 10634 10638 10640 10642 10644 10649 10655 10666
10561 10559 10558 10556 10555 10555 10554 10553 10553 10553 10553 10552 10552 10552 10552 10552 10552 10551 10551 10551 10551 10551 10551 10551 10550 10550 10549 10549 10549 10548 10547 10546 10544 10543 10541 10540 10538 10536 10534 10533 10530 10528 10527 10525 10523 10520 10519 10518 10516 10515 10514 10515 10515 10518 10521 10520 10519 10521 10523 10522 10521 10524 10529 10537 10542 10545 10551 10557 10562 10566 10570 10578 10581 10581 10584 10591 10601 10609 10615 10623 10626 10626 10627 10629 10635 10642 10650 10662
10564 10562 10560 10559 10558 10557 10557 10556 10555 10555 10554 10554 10553 10553 10552 10552 10551 10551 10551 10551 10551 10551 10551 10550 10549 10549 10548 10547 10546 10546 10545 10543 10542 10540 10538 10536 10534 10532 10530 10528 10525 10523 10521 10519 10516 10513 10512 10510 10509 10507 10506 10506 10506 10507 10509 10509 10508 10509 10511 10511 10510 10510 10515 10524 10530 10531 10535 10541 10548 10551 10554 10560 10565 10571 10577 10584 10596 10601 10603 10611 10616 10615 10615 10619 10628 10636 10644 10657
10566 10565 10563 10562 10561 10560 10559 10558 10557 10556 10556 10555 10554 10553 10553 10552 10552 10551 10551 10551 10551 10550 10550 10550 10549 10547 10546 10545 10544 10543 10542 10541 10539 10537 10535 10533 10531 10529 10526 10524 10521 10519 10516 10514 10511 10508 10506 10504 10501 10499 10497 10497 10496 10497 10497 10497 10497 10497 10499 10500 10500 10499 10501 10510 10517 10517 10519 10525 10533 10537 10540 10546 10550 10559 10570 10578 10586 10590 10592 10597 10603 10606 10606 10611 10620 10629 10636 10646
10570 10568 10566 10565 10564 10562 10561 10560 10559 10559 10558 10557 10556 10554 10553 10553 10552 10552 10552 10551 10550 10550 10550 10549 10548 10547 10545 10544 10543 10542 10540 10539 10537 10535 10532 10530 10528 10525 10522 10520 10517 10514 10512 10509 10506 10503 10500 10498 10496 10493 10490 10488 10487 10486 10487 10487 10486 10486 10487 10489 10490 10489 10489 10495 10502 10503 10507 10513 10519 10523 10528 10533 10536 10545 10559 10568 10573 10577 10581 10586 10591 10596 10600 10604 10611 10619 10625 10633
10574 10572 10571 10569 10568 10566 10565 10564 10563 10562 10561 10560 10558 10557 10556 10555 10554 10553 10552 10551 10551 10551 10550 10549 10548 10547 10546 10544 10543 10541 10539 10537 10535 10533 10531 10528 10526 10523 10520 10517 10513 10510 10507 10504 10500 10497 10494 10492 10490 10488 10485 10483 10480 10478 10477 10477 10478 10477 10478 10479 10480 10480 10479 10483 10488 10493 10499 10505 10508 10512 10516 10521 10525 10534 10546 10554 10561 10565 10569 10575 10581 10586 10592 10598 10603 10608 10614 10621
10578 10576 10575 10573 10572 10570 10569 10567 10566 10565 10563 10562 10561 10559 10558 10557 10555 10554 10553 10553 10553 10552 10551 10550 10548 10547 10546 10544 10543 10541 10539 10537 10534 10532 10530 10527 10524 10521 10518 10514 10511 10507 10503 10499 10495 10492 10488 10485 10482 10481 10479 10477 10474 10472 10470 10468 10468 10468 10469 10470 10470 10471 10471 10473 10477 10484 10491 10496 10498 10501 10505 10510 10515 10523 10533 10541 10550 10554 10556 10564 10571 10575 10582 10589 10595 10599 10603 10609
10582 10580 10579 10577 10575 10574 10572 10570 10569 10567 10565 10564 10563 10561 10560 10560 10559 10558 10557 10557 10555 10554 10552 10550 10549 10548 10547 10545 10543 10541 10539 10537 10534 10531 10529 10526 10523 10520 10516 10513 10509 10504 10500 10496 10492 10488 10484 10480 10477 10474 10472 10470 10468 10466 10464 10461 10460 10459 10460 10461 10462 10462 10463 10465 10468 10473 10480 10485 10488 10492 10496 10500 10505 10512 10520 10529 10537 10541 10546 10553 10559 10564 10570 10577 10584 10589 10593 10597
10586 10584 10582 10580 10578 10577 10575 10573 10571 10569 10568 10567 10566 10564 10563 10563 10562 10560 10559 10558 10556 10555 10554 10552 10552 10550 10547 10545 10543 10541 10539 10536 10533 10530 10527 10525 10522 10518 10514 10510 10506 10502 10499 10496 10492 10488 10483 10479 10474 10470 10467 10464 10462 10460 10458 10456 10454 10453 10452 10453 10454 10456 10456 10457 10459 10463 10471 10476 10480 10484 10486 10489 10496 10502 10507 10516 10523 10528 10535 10542 10547 10552 10557 10564 10571 10578 10583 10586
10590 10588 10585 10583 10581 10580 10578 10576 10574 10572 10571 10569 10568 10567 10566 10565 10563 10562 10560 10559 10558 10556 10554 10553 10552 10550 10547 10544 10542 10540 10537 10534 10531 10528 10525 10522 10519 10515 10512 10508 10504 10500 10497 10492 10488 10484 10480 10476 10473 10468 10464 10460 10457 10454 10452 10451 10449 10447 10446 10445 10446 10449 10450 10451 10453 10457 10462 10467 10470 10474 10476 10480 10486 10491 10495 10502 10510 10515 10523 10531 10535 10539 10545 10551 10559 10565 10570 10576
10594 10591 10589 10586 10584 10582 10580 10578 10576 10575 10573 10571 10570 10568 10567 10565 10564 10562 10561 10559 10557 10556 10554 10552 10550 10547 10545 10542 10540 10538 10534 10531 10529 10526 10524 10521 10517 10514 10510 10507 10503 10498 10494 10489 10485 10481 10477 10474 10470 10467 10462 10458 10454 10451 10448 10446 10444 10443 10441 10440 10440 10442 10444 10446 10448 10451 10454 10457 10461 10466 10468 10472 10477 10482 10485 10489 10496 10504 10512 10518 10523 10528 10533 10540 10547 10553 10558 10564
10598 10595 10592 10589 10586 10584 10582 10580 10578 10576 10574 10573 10571 10569 10567 10565 10563 10562 10559 10557 10556 10554 10552 10550 10547 10544 10542 10539 10537 10534 10531 10529 10527 10525 10523 10520 10516 10513 10509 10505 10501 10497 10493 10489 10485 10480 10476 10472 10468 10464 10460 10456 10452 10449 10446 10443 10441 10439 10437 10436 10436 10437 10439 10441 10443 10445 10447 10450 10454 10459 10462 10465 10470 10474 10477 10479 10485 10494 10501 10506 10511 10517 10522 10529 10537 10542 10547 10552
10602 10599 10596 10593 10590 10587 10584 10582 10580 10578 10576 10573 10571 10569 10567 10565 10562 10561 10558 10556 10555 10553 10550 10548 10546 10543 10540 10537 10535 10532 10529 10527 10525 10523 10521 10517 10514 10512 10508 10504 10500 10496 10492 10488 10483 10478 10474 10470 10465 10462 10458 10454 10450 10446 10443 10441 10438 10436 10434 10433 10433 10433 10434 10436 10437 10439 10442 10445 10448 10452 10455 10459 10463 10467 10469 10472 10476 10482 10490 10495 10499 10504 10511 10518 10525 10531 10536 10541
10606 10603 10600 10597 10594 10590 10587 10584 10582 10579 10577 10574 10572 10570 10567 10565 10563 10561 10559 10557 10556 10554 10551 10549 10547 10544 10540 10537 10536 10532 10529 10527 10524 10521 10518 10515 10512 10510 10506 10501 10498 10494 10490 10486 10481 10477 10472 10468 10463 10460 10456 10453 10449 10445 10442 10439 10436 10434 10432 10430 10430 10430 10430 10431 10432 10434 10437 10440 10443 10446 10449 10454 10457 10459 10461 10465 10468 10473 10480 10486 10489 10494 10500 10507 10514 10519 10525 10530
10609 10606 10604 10601 10597 10594 10591 10588 10584 10581 10579 10576 10574 10571 10569 10567 10565 10563 10560 10558 10558 10555 10553 10551 10549 10545 10541 10539 10537 10533 10530 10527 10521 10518 10517 10514 10511 10508 10503 10499 10496 10493 10488 10484 10479 10475 10470 10465 10462 10458 10454 10450 10448 10445 10443 10440 10436 10433 10431 10429 10428 10427 10427 10428 10428 10430 10432 10435 10438 10441 10444 10448 10451 10453 10456 10459 10461 10466 10472 10476 10481 10485 10490 10498 10505 10510 10514 10518
10612 10610 10607 10605 10602 10598 10595 10591 10588 10585 10582 10579 10576 10573 10571 10569 10567 10565 10562 10561 10560 10557 10555 10554 10551 10547 10543 10542 10538 10534 10532 10527 10522 10520 10518 10513 10510 10507 10501 10497 10495 10491 10487 10483 10479 10474 10470 10466 10462 10457 10453 10450 10449 10446 10443 10440 10437 10434 10431 10428 10426 10425 10425 10425 10425 10426 10428 10431 10434 10437 10439 10442 10445 10448 10451 10453 10455 10459 10464 10468 10474 10477 10480 10488 10495 10499 10503 10507
10615 10613 10610 10608 10606 10603 10599 10595 10592 10589 10586 10582 10579 10576 10574 10572 10571 10568 10566 10565 10563 10559 10557 10555 10552 10549 10546 10544 10540 10536 10533 10529 10526 10522 10517 10512 10510 10506 10501 10497 10494 10490 10486 10483 10479 10475 10472 10468 10464 10459 10456 10453 10450 10446 10443 10440 10437 10434 10431 10428 10426 10424 10423 10423 10423 10424 10425 10427 10430 10433 10435 10437 10440 10444 10447 10449 10451 10454 10457 10461 10466 10468 10472 10478 10485 10489 10492 10496
10618 10616 10613 10611 10609 10606 10603 10600 10597 10593 10590 10587 10583 10580 10577 10575 10574 10571 10570 10569 10564 10561 10559 10556 10554 10551 10549 10546 10542 10538 10535 10531 10528 10523 10518 10514 10511 10506 10501 10498 10495 10491 10487 10483 10479 10475 10472 10467 10464 10462 10460 10456 10452 10448 10445 10441 10437 10434 10431 10429 10427 10425 10423 10422 10422 10422 10423 10425 10427 10429 10432 10433 10435 10439 10443 10445 10448 10450 10452 10454 10458 10461 10465 10469 10475 10479 10482 10485
10622 10619 10616 10614 10612 10609 10606 10604 10601 10597 10594 10591 10588 10585 10582 10579 10577 10575 10573 10571 10566 10564 10561 10558 10555 10552 10548 10545 10542 10540 10536 10532 10528 10523 10517 10512 10508 10503 10499 10496 10493 10489 10487 10484 10480 10475 10470 10466 10463 10461 10457 10453 10450 10446 10442 10439 10437 10434 10431 10430 10428 10426 10424 10423 10422 10422 10422 10423 10424 10426 10428 10430 10431 10434 10437 10440 10443 10446 10449 10451 10453 10457 10460 10463 10468 10472 10476 10479
10625 10622 10619 10617 10614 10612 10609 10606 10603 10600 10598 10595 10592 10589 10586 10583 10580 10578 10576 10573 10570 10568 10564 10560 10557 10553 10550 10547 10544 10540 10536 10532 10528 10524 10519 10515 10511 10506 10502 10499 10495 10491 10488 10486 10481 10476 10472 10468 10463 10457 10451 10447 10443 10439 10435 10434 10433 10432 10431 10429 10427 10425 10425 10424 10423 10423 10422 10422 10422 10424 10425 10427 10429 10431 10432 10435 10438 10441 10444 10447 10450 10453 10457 10461 10466 10470 10474 10476
10628 10625 10622 10620 10617 10614 10612 10609 10606 10603 10600 10598 10595 10593 10589 10586 10583 10581 10578 10576 10574 10571 10567 10563 10559 10555 10552 10549 10546 10543 10539 10535 10532 10529 10526 10522 10518 10512 10507 10503 10499 10495 10491 10487 10483 10479 10475 10471 10466 10461 10456 10452 10448 10444 10442 10440 10437 10435 10433 10431 10429 10428 10427 10426 10425 10424 10423 10422 10422 10423 10424 10425 10426 10428 10430 10432 10434 10437 10439 10442 10445 10449 10453 10457 10462 10467 10469 10471
10631 10628 10626 10623 10620 10617 10615 10612 10609 10606 10603 10600 10598 10595 10592 10589 10586 10583 10581 10579 10576 10573 10569 10566 10562 10559 10556 10553 10549 10545 10542 10538 10535 10532 10528 10524 10519 10514 10510 10505 10501 10498 10494 10491 10488 10485 10481 10476 10472 10468 10464 10460 10456 10454 10452 10449 10445 10442 10439 10436 10434 10433 10432 10430 10428 10426 10424 10423 10423 10423 10423 10424 10425 10426 10427 10429 10431 10434 10436 10438 10440 10443 10447 10450 10455 10459 10463 10465
10633 10631 10628 10626 10623 10620 10618 10615 10612 10609 10606 10603 10600 10598 10595 10592 10589 10586 10583 10581 10578 10575 10572 10569 10565 10562 10559 10556 10552 10548 10544 10541 10537 10533 10529 10525 10521 10517 10514 10509 10504 10500 10497 10494 10491 10488 10486 10482 10477 10472 10467 10464 10460 10457 10454 10451 10449 10446 10442 10440 10439 10438 10436 10434 10431 10429 10427 10426 10425 10424 10424 10424 10424 10425 10425 10426 10428 10430 10432 10435 10437 10439 10441 10443 10447 10450 10454 10457
10636 10633 10630 10628 10625 10623 10620 10618 10616 10613 10609 10605 10602 10600 10597 10594 10591 10588 10585 10582 10579 10576 10574 10571 10568 10564 10561 10558 10554 10551 10547 10544 10540 10536 10532 10529 10525 10522 10518 10514 10509 10505 10501 10497 10493 10489 10487 10484 10481 10476 10471 10466 10463 10459 10456 10453 10450 10447 10445 10445 10443 10441 10438 10435 10433 10431 10429 10427 10426 10425 10425 10424 10424 10424 10424 10425 10426 10427 10429 10431 10433 10435 10437 10439 10441 10444 10447 10450
10638 10635 10632 10630 10628 10625 10622 10620 10618 10615 10612 10609 10605 10602 10599 10596 10593 10590 10586 10583 10580 10578 10575 10572 10570 10567 10564 10560 10557 10553 10549 10546 10543 10539 10536 10532 10528 10525 10522 10518 10514 10510 10505 10500 10496 10492 10488 10484 10482 10480 10477 10473 10468 10463 10459 10456 10452 10450 10448 10447 10445 10442 10439 10436 10434 10432 10430 10428 10427 10425 10425 10425 10425 10424 10424 10424 10425 10425 10427 10428 10429 10431 10433 10435 10437 10439 10441 10444
10641 10638 10634 10632 10630 10627 10624 10622 10619 10617 10614 10611 10607 10604 10601 10598 10594 10591 10588 10585 10582 10579 10576 10573 10571 10568 10565 10562 10559 10555 10552 10548 10545 10541 10538 10534 10530 10527 10524 10520 10517 10513 10509 10505 10500 10496 10491 10487 10483 10481 10480 10478 10475 10470 10465 10461 10457 10454 10451 10448 10445 10442 10440 10437 10435 10434 10432 10430 10428 10427 10425 10424 10424 10424 10424 10424 10424 10424 10425 10425 10426 10427 10429 10431 10432 10434 10436 10439
10643 10640 10637 10634 10632 10629 10626 10623 10621 10618 10615 10612 10609 10606 10603 10600 10596 10593 10590 10587 10583 10580 10577 10574 10571 10568 10565 10562 10560 10557 10553 10550 10546 10542 10539 10535 10532 10529 10525 10522 10518 10514 10511 10507 10503 10499 10495 10491 10488 10483 10479 10477 10476 10474 10470 10466 10462 10458 10454 10450 10446 10443 10441 10439 10437 10435 10434 10432 10431 10429 10428 10426 10425 10424 10423 10423 10423 10423 10423 10424 10424 10425 10426 10427 10428 10430 10432 10434
10646 10642 10639 10636 10633 10631 10628 10625 10622 10620 10617 10614 10611 10608 10605 10601 10598 10595 10591 10588 10585 10582 10578 10575 10572 10569 10566 10563 10560 10557 10554 10551 10548 10544 10540 10536 10533 10529 10526 10522 10518 10515 10511 10507 10503 10500 10496 10493 10490 10486 10481 10476 10473 10472 10471 10468 10464 10459 10455 10452 10449 10447 10444 10441 10438 10436 10434 10433 10432 10431 10430 10428 10427 10425 10423 10422 10422 10422 10421 10422 10422 10422 10423 10423 10424 10426 10427 10429
10647 10644 10641 10638 10635 10632 10630 10627 10624 10621 10619 10616 10612 10609 10606 10603 10600 10596 10593 10589 10586 10583 10580 10576 10573 10570 10567 10563 10560 10557 10554 10552 10549 10545 10542 10538 10534 10530 10527 10523 10519 10515 10512 10508 10504 10500 10497 10494 10490 10487 10483 10479 10475 10472 10470 10469 10467 10463 10459 10456 10453 10450 10447 10444 10441 10438 10435 10433 10431 10430 10429 10428 10427 10426 10424 10422 10421 10421 10420 10419 10419 10419 10420 10420 10421 10422 10423 10424
10648 10646 10643 10640 10636 10633 10631 10628 10625 10622 10620 10617 10614 10611 10608 10605 10602 10598 10595 10591 10587 10584 10580 10577 10574 10571 10568 10565 10561 10558 10555 10552 10549 10546 10543 10539 10536 10532 10528 10524 10520 10516 10513 10510 10506 10502 10498 10494 10491 10488 10486 10484 10480 10475 10471 10469 10468 10467 10464 10460 10457 10453 10451 10448 10444 10441 10437 10434 10432 10429 10428 10427 10426 10425 10423 10422 10420 10419 10419 10418 10417 10417 10417 10417 10418 10418 10419 10420
10649 10647 10644 10641 10638 10635 10632 10629 10626 10623 10620 10617 10615 10612 10609 10606 10603 10600 10596 10593 10589 10586 10582 10578 10575 10572 10569 10566 10562 10559 10556 10552 10549 10547 10543 10540 10537 10533 10530 10526 10522 10519 10515 10511 10508 10504 10500 10496 10493 10489 10486 10483 10481 10477 10473 10469 10467 10467 10465 10463 10459 10456 10452 10450 10447 10443 10440 10437 10434 10431 10428 10426 10424 10422 10421 10419 10418 10417 10417 10417 10416 10415 10414 10414 10414 10414 10415 10416
10650 10647 10644 10642 10639 10635 10633 10630 10627 10624 10621 10617 10614 10612 10609 10607 10604 10601 10598 10594 10590 10587 10583 10579 10576 10573 10569 10566 10563 10560 10557 10553 10550 10546 10543 10540 10537 10534 10531 10527 10524 10520 10517 10513 10509 10506 10502 10499 10496 10492 10488 10485 10483 10480 10476 10472 10469 10467 10465 10463 10460 10457 10453 10450 10447 10445 10442 10439 10436 10433 10430 10427 10425 10422 10420 10418 10416 10415 10414 10414 10414 10413 10413 10412 10411 10411 10411 10411
10650 10647 10645 10642 10639 10636 10633 10630 10628 10625 10622 10618 10615 10611 10609 10606 10604 10601 10598 10595 10591 10587 10584 10580 10577 10573 10570 10566 10563 10560 10557 10554 10550 10547 10543 10540 10536 10533 10530 10528 10525 10521 10518 10514 10509 10506 10503 10499 10497 10495 10492 10489 10487 10484 10480 10474 10470 10467 10464 10462 10460 10457 10454 10451 10448 10446 10443 10441 10438 10435 10433 10430 10427 10424 10421 10418 10416 10413 10412 10411 10410 10410 10409 10409 10408 10408 10407 10407
10650 10647 10645 10642 10639 10636 10633 10631 10628 10625 10622 10619 10615 10612 10608 10606 10604 10601 10598 10595 10591 10587 10584 10580 10577 10573 10570 10567 10563 10560 10557 10554 10550 10547 10543 10540 10536 10532 10529 10526 10524 10521 10518 10515 10511 10506 10502 10499 10495 10493 10491 10487 10484 10483 10481 10477 10472 10468 10464 10462 10459 10457 10455 10451 10448 10446 10443 10441 10438 10435 10433 10431 10429 10426 10423 10420 10417 10414 10411 10409 10407 10406 10405 10405 10404 10404 10403 10403
10649 10646 10644 10642 10639 10636 10633 10630 10628 10625 10621 10618 10615 10612 10608 10605 10603 10600 10598 10594 10591 10587 10584 10580 10577 10573 10570 10567 10563 10560 10557 10553 10550 10547 10543 10540 10536 10532 10529 10525 10522 10520 10518 10516 10513 10509 10504 10499 10495 10491 10489 10486 10482 10480 10479 10478 10474 10469 10465 10461 10457 10455 10454 10451 10448 10445 10442 10440 10438 10435 10432 10429 10428 10427 10425 10422 10419 10416 10412 10409 10407 10405 10403 10402 10401 10400 10399 10399
10648 10646 10643 10641 10638 10635 10632 10630 10627 10624 10621 10617 10614 10611 10607 10605 10602 10600 10597 10594 10590 10587 10584 10580 10576 10573 10569 10566 10562 10559 10556 10552 10549 10546 10542 10539 10535 10532 10528 10525 10521 10518 10516 10514 10513 10511 10506 10502 10497 10492 10488 10486 10482 10478 10476 10475 10474 10470 10465 10461 10456 10452 10450 10449 10447 10443 10440 10438 10436 10434 10431 10428 10425 10423 10422 10421 10419 10417 10414 10410 10407 10405 10402 10401 10399 10397 10396 10395
10648 10645 10641 10639 10636 10634 10631 10629 10626 10623 10620 10616 10613 10610 10606 10604 10601 10599 10596 10593 10590 10587 10583 10579 10576 10572 10569 10566 10562 10558 10555 10552 10549 10545 10541 10538 10534 10530 10527 10523 10520 10517 10514 10512 10510 10508 10506 10503 10498 10493 10487 10484 10482 10478 10473 10471 10470 10468 10465 10460 10456 10451 10447 10444 10443 10441 10439 10436 10433 10431 10429 10426 10423 10420 10417 10416 10415 10414 10412 10409 10406 10403 10401 10399 10397 10395 10393 10390
10647 10644 10640 10637 10635 10632 10630 10627 10625 10623 10619 10616 10612 10609 10606 10603 10600 10597 10595 10592 10589 10586 10583 10579 10575 10571 10568 10565 10562 10558 10554 10551 10548 10544 10540 10536 10533 10529 10525 10521 10518 10514 10511 10509 10506 10504 10503 10501 10498 10494 10488 10483 10480 10477 10473 10469 10466 10464 10462 10458 10454 10450 10445 10440 10438 10437 10436 10433 10430 10428 10426 10424 10421 10418 10414 10411 10409 10408 10408 10407 10404 10401 10398 10395 10393 10391 10388 10386
10645 10642 10639 10636 10633 10630 10628 10626 10624 10621 10618 10615 10612 10608 10605 10602 10599 10597 10593 10590 10588 10585 10582 10578 10574 10571 10567 10564 10561 10558 10554 10550 10547 10543 10539 10535 10531 10528 10524 10520 10516 10512 10509 10506 10503 10500 10499 10497 10496 10493 10489 10484 10479 10476 10472 10467 10461 10459 10459 10458 10452 10448 10444 10439 10433 10430 10431 10430 10426 10423 10422 10420 10417 10415 10412 10409 10405 10402 10401 10402 10400 10397 10394 10391 10388 10385 10383 10380
10643 10640 10637 10634 10630 10628 10626 10624 10622 10620 10617 10614 10611 10607 10604 10601 10598 10596 10592 10589 10586 10584 10581 10578 10574 10570 10567 10563 10560 10557 10554 10550 10546 10542 10538 10534 10530 10526 10522 10519 10515 10511 10507 10504 10502 10498 10496 10494 10492 10490 10488 10484 10479 10476 10472 10466 10458 10453 10454 10455 10452 10447 10442 10438 10432 10426 10425 10426 10422 10418 10416 10415 10413 10411 10408 10405 10402 10397 10394 10394 10395 10392 10388 10386 10383 10380 10377 10375